• In Uzbekistan
  • List of Countries
  • For 7 days
  • Water Temperature
  • Satellite Maps
  • Weather Map
  • Weather Widgets
  • user-avatar
    Login

    Hourly Weather Neuquén

    Today, 25 July, Tuesday

    Time Temperature Precipitation Wind Pressure Humidity
    00:00 +8°C° 0 mm 2 mps 738 mmHg 44%
    01:00 +8°C° 0 mm 2 mps 738 mmHg 45%
    02:00 +8°C° 0 mm 2 mps 738 mmHg 46%
    03:00 +8°C° 0 mm 3 mps 738 mmHg 46%
    04:00 +7°C° 0 mm 3 mps 737 mmHg 47%
    05:00 +7°C° 0 mm 3 mps 737 mmHg 48%
    06:00 +6°C° 0 mm 4 mps 737 mmHg 49%
    07:00 +6°C° 0 mm 4 mps 737 mmHg 53%
    08:00 +8°C° 0 mm 5 mps 737 mmHg 48%
    09:00 +10°C° 0 mm 6 mps 737 mmHg 43%
    10:00 +12°C° 0 mm 7 mps 737 mmHg 38%
    11:00 +13°C° 0 mm 8 mps 736 mmHg 36%
    12:00 +15°C° 0 mm 8 mps 736 mmHg 34%
    13:00 +16°C° 0 mm 8 mps 735 mmHg 32%
    14:00 +16°C° 0 mm 7 mps 735 mmHg 35%
    15:00 +15°C° 0 mm 6 mps 735 mmHg 37%
    16:00 +15°C° 0 mm 5 mps 734 mmHg 39%
    17:00 +14°C° 0 mm 5 mps 735 mmHg 44%
    18:00 +13°C° 0 mm 4 mps 735 mmHg 49%
    19:00 +12°C° 0 mm 3 mps 735 mmHg 53%
    20:00 +11°C° 0 mm 3 mps 735 mmHg 54%
    21:00 +11°C° 0 mm 3 mps 736 mmHg 56%
    22:00 +10°C° 0 mm 3 mps 736 mmHg 57%
    23:00 +10°C° 0 mm 3 mps 736 mmHg 57%

    Tomorrow, 26 July, Wednesday

    Time Temperature Precipitation Wind Pressure Humidity
    00:00 +9°C° 0 mm 3 mps 736 mmHg 56%
    01:00 +9°C° 0 mm 2 mps 736 mmHg 56%
    02:00 +8°C° 0 mm 2 mps 736 mmHg 55%
    03:00 +8°C° 0 mm 2 mps 736 mmHg 54%
    04:00 +8°C° 0 mm 2 mps 736 mmHg 53%
    05:00 +7°C° 0 mm 2 mps 736 mmHg 52%
    06:00 +8°C° 0 mm 1 mps 736 mmHg 51%
    07:00 +7°C° 0 mm 1 mps 736 mmHg 50%
    08:00 +9°C° 0 mm 1 mps 737 mmHg 44%
    09:00 +11°C° 0 mm 1 mps 737 mmHg 37%
    10:00 +13°C° 0 mm 1 mps 737 mmHg 31%
    11:00 +15°C° 0 mm 2 mps 736 mmHg 30%
    12:00 +16°C° 0 mm 3 mps 735 mmHg 28%
    13:00 +17°C° 0 mm 4 mps 734 mmHg 27%
    14:00 +17°C° 0 mm 3 mps 734 mmHg 31%
    15:00 +17°C° 0 mm 3 mps 733 mmHg 34%
    16:00 +17°C° 0 mm 3 mps 733 mmHg 38%
    17:00 +16°C° 0 mm 3 mps 733 mmHg 43%
    18:00 +14°C° 0 mm 3 mps 733 mmHg 49%
    19:00 +13°C° 0 mm 3 mps 733 mmHg 54%
    20:00 +12°C° 0 mm 4 mps 732 mmHg 58%
    21:00 +12°C° 0 mm 4 mps 732 mmHg 63%
    22:00 +12°C° 0 mm 4 mps 732 mmHg 68%
    23:00 +11°C° 0 mm 3 mps 732 mmHg 72%

    Day after tomorrow, 27 July, Thursday

    Time Temperature Precipitation Wind Pressure Humidity
    00:00 +11°C° 0 mm 3 mps 731 mmHg 77%
    01:00 +10°C° 0 mm 3 mps 731 mmHg 82%
    02:00 +10°C° 0 mm 2 mps 731 mmHg 82%
    03:00 +9°C° 0 mm 2 mps 731 mmHg 82%
    04:00 +10°C° 0 mm 1 mps 730 mmHg 83%
    05:00 +10°C° 0 mm 1 mps 730 mmHg 78%
    06:00 +10°C° 0 mm 1 mps 730 mmHg 74%
    07:00 +9°C° 0 mm 1 mps 731 mmHg 69%
    08:00 +12°C° 0 mm 1 mps 731 mmHg 57%
    09:00 +14°C° 0 mm 2 mps 731 mmHg 45%
    10:00 +16°C° 0 mm 2 mps 731 mmHg 33%
    11:00 +18°C° 0 mm 2 mps 731 mmHg 27%
    12:00 +19°C° 0 mm 3 mps 731 mmHg 21%
    13:00 +20°C° 0 mm 4 mps 730 mmHg 15%
    14:00 +20°C° 0 mm 3 mps 730 mmHg 16%
    15:00 +19°C° 0 mm 2 mps 730 mmHg 17%
    16:00 +19°C° 0 mm 2 mps 730 mmHg 18%
    17:00 +17°C° 0 mm 2 mps 730 mmHg 19%
    18:00 +16°C° 0 mm 1 mps 730 mmHg 21%
    19:00 +15°C° 0 mm 1 mps 731 mmHg 22%
    20:00 +15°C° 0 mm 2 mps 731 mmHg 23%
    21:00 +14°C° 0 mm 2 mps 731 mmHg 23%
    22:00 +14°C° 0 mm 2 mps 731 mmHg 24%
    23:00 +13°C° 0 mm 2 mps 731 mmHg 25%

    28 July, Friday

    Time Temperature Precipitation Wind Pressure Humidity
    00:00 +12°C° 0 mm 2 mps 731 mmHg 26%
    01:00 +12°C° 0 mm 2 mps 731 mmHg 27%
    02:00 +12°C° 0 mm 2 mps 730 mmHg 28%
    03:00 +10°C° 0 mm 2 mps 730 mmHg 30%
    04:00 +10°C° 0 mm 2 mps 730 mmHg 31%
    05:00 +10°C° 0 mm 2 mps 730 mmHg 32%
    06:00 +10°C° 0 mm 2 mps 731 mmHg 33%
    07:00 +10°C° 0 mm 2 mps 731 mmHg 35%
    08:00 +11°C° 0 mm 3 mps 731 mmHg 36%
    09:00 +13°C° 0 mm 5 mps 732 mmHg 37%
    10:00 +14°C° 0 mm 6 mps 732 mmHg 38%
    11:00 +14°C° 0 mm 6 mps 732 mmHg 37%
    12:00 +15°C° 0 mm 6 mps 732 mmHg 36%
    13:00 +16°C° 0 mm 5 mps 732 mmHg 35%
    14:00 +15°C° 0 mm 5 mps 732 mmHg 37%
    15:00 +15°C° 0 mm 5 mps 732 mmHg 38%
    16:00 +14°C° 0 mm 5 mps 733 mmHg 40%
    17:00 +13°C° 0.1 mm 5 mps 733 mmHg 42%
    18:00 +11°C° 0.1 mm 6 mps 734 mmHg 44%
    19:00 +10°C° 0.1 mm 6 mps 735 mmHg 47%
    20:00 +9°C° 0 mm 6 mps 736 mmHg 44%
    21:00 +9°C° 0 mm 6 mps 737 mmHg 42%
    22:00 +8°C° 0 mm 7 mps 737 mmHg 40%
    23:00 +6°C° 0 mm 7 mps 738 mmHg 41%

    29 July, Saturday

    Time Temperature Precipitation Wind Pressure Humidity
    00:00 +6°C° 0 mm 7 mps 738 mmHg 41%
    01:00 +6°C° 0 mm 7 mps 739 mmHg 42%
    02:00 +5°C° 0 mm 6 mps 739 mmHg 43%
    03:00 +5°C° 0 mm 6 mps 739 mmHg 43%
    04:00 +5°C° 0 mm 6 mps 739 mmHg 44%
    05:00 +4°C° 0 mm 6 mps 740 mmHg 45%
    06:00 +5°C° 0 mm 5 mps 740 mmHg 46%
    07:00 +5°C° 0 mm 5 mps 741 mmHg 46%
    08:00 +6°C° 0 mm 4 mps 742 mmHg 41%
    09:00 +7°C° 0 mm 4 mps 742 mmHg 36%
    10:00 +8°C° 0 mm 4 mps 743 mmHg 31%
    11:00 +10°C° 0 mm 4 mps 742 mmHg 29%
    12:00 +10°C° 0 mm 3 mps 742 mmHg 28%
    13:00 +11°C° 0 mm 3 mps 742 mmHg 26%
    14:00 +11°C° 0 mm 3 mps 742 mmHg 26%
    15:00 +10°C° 0 mm 3 mps 742 mmHg 27%
    16:00 +10°C° 0 mm 3 mps 742 mmHg 28%
    17:00 +10°C° 0 mm 3 mps 742 mmHg 31%
    18:00 +9°C° 0 mm 3 mps 743 mmHg 33%
    19:00 +8°C° 0 mm 3 mps 743 mmHg 36%
    20:00 +7°C° 0 mm 4 mps 744 mmHg 39%
    21:00 +6°C° 0 mm 4 mps 744 mmHg 42%
    22:00 +6°C° 0 mm 5 mps 744 mmHg 44%
    23:00 +6°C° 0 mm 5 mps 744 mmHg 47%

    30 July, Sunday

    Time Temperature Precipitation Wind Pressure Humidity
    00:00 +5°C° 0 mm 5 mps 744 mmHg 50%
    01:00 +5°C° 0 mm 5 mps 744 mmHg 52%
    02:00 +3°C° 0 mm 5 mps 744 mmHg 54%
    03:00 +3°C° 0 mm 5 mps 743 mmHg 56%
    04:00 +3°C° 0 mm 5 mps 743 mmHg 59%
    05:00 +2°C° 0 mm 5 mps 743 mmHg 60%
    06:00 +2°C° 0 mm 5 mps 743 mmHg 62%
    07:00 +3°C° 0 mm 4 mps 744 mmHg 64%
    08:00 +3°C° 0 mm 5 mps 744 mmHg 60%
    09:00 +5°C° 0 mm 5 mps 744 mmHg 57%
    10:00 +7°C° 0 mm 6 mps 744 mmHg 53%
    11:00 +7°C° 0 mm 6 mps 743 mmHg 51%
    12:00 +8°C° 0 mm 6 mps 743 mmHg 49%
    13:00 +9°C° 0 mm 6 mps 742 mmHg 47%
    14:00 +9°C° 0 mm 6 mps 742 mmHg 48%
    15:00 +9°C° 0 mm 6 mps 741 mmHg 48%
    16:00 +8°C° 0 mm 5 mps 741 mmHg 49%
    17:00 +8°C° 0 mm 5 mps 741 mmHg 52%
    18:00 +7°C° 0 mm 4 mps 741 mmHg 55%
    19:00 +6°C° 0 mm 4 mps 741 mmHg 58%
    20:00 +6°C° 0 mm 4 mps 741 mmHg 60%
    21:00 +6°C° 0 mm 4 mps 741 mmHg 62%
    22:00 +5°C° 0 mm 3 mps 741 mmHg 64%
    23:00 +5°C° 0 mm 3 mps 741 mmHg 66%
    Show more